Location: Pallagorio
(39.3000°N, 16.9000°E)
Time: 00:37:43
(UTC+00:00)

Helios 1A Rocket - Pass Details

Date: 24 January 2021
Orbit: 562 x 586 km, 98.3° (Epoch: 08 March)

Event Time Altitude Azimuth Distance (km) Brightness Sun altitude
Rises 17:09:56 0° 143° (SE) 2,797 6.2 -12.9°
Reaches altitude 10° 17:12:13 10° 134° (SE) 1,903 5.3 -13.3°
Maximum altitude 17:15:55 32° 70° (ENE) 1,009 3.6 -14.0°
Drops below altitude 10° 17:19:38 10° 7° (N) 1,917 5.4 -14.7°
Sets 17:21:56 0° 358° (N) 2,822 6.3 -15.2°
